This demonstration page uses our WeatherBlox Daily Observations layout. Learn more.

Left ArrowRight Arrow

31.31129, -92.44514

Hourly Observations for August 15, 2016

Temp ( °F °C ) Dew Point ( °F °C ) Humidity (%) Winds ( mph kmh ) Pressure ( in mb ) Visibility ( mi km ) Precip ( " mm )
12:53 am 00:53 Mostly Cloudy 74 23.3 74 23.3 100 100 S 3 6 30.01 1016 8 13 0.00 0.00
1:53 am 01:53 Clear 74 23.3 74 23.3 100 100 SE 3 6 30.00 1016 10 16 0.00 0.00
2:53 am 02:53 Clear 74 23.3 74 23.3 100 100 Calm 29.99 1016 9 14 0.00 0.00
3:53 am 03:53 Clear with Mist and Fog 73 22.8 73 22.8 100 100 Calm 29.99 1016 6 10 0.00 0.00
4:12 am 04:12 Mostly Clear 73 22.8 73 22.8 100 100 Calm 29.97 1015 8 13 0.00 0.00
4:53 am 04:53 Clear 73 22.8 73 22.8 100 100 E 3 6 29.98 1015 8 13 0.00 0.00
5:46 am 05:46 Mostly Clear 74 23.3 74 23.3 100 100 ESE 5 7 29.97 1015 10 16 0.00 0.00
5:53 am 05:53 Partly Cloudy 74 23.3 74 23.3 100 100 SE 6 9 29.98 1015 10 16 0.00 0.00
6:02 am 06:02 Mostly Cloudy 74 23.3 74 23.3 100 100 SE 6 9 29.97 1015 9 14 0.00 0.00
6:44 am 06:44 Partly Cloudy 74 23.3 74 23.3 100 100 SE 5 7 30.00 1016 9 14 0.00 0.00
6:53 am 06:53 Mostly Sunny 74 23.3 74 23.3 100 100 undefined N/A 30.00 1016 8 13 0.00 0.00
7:53 am 07:53 Mostly Sunny 75 23.9 75 23.9 100 100 SE 6 9 30.00 1016 9 14 0.00 0.00
8:45 am 08:45 Mostly Cloudy 76 24.4 75 23.9 97 97 SE 8 13 30.00 1016 9 14 0.00 0.00
8:53 am 08:53 Mostly Cloudy 77 25 76 24.4 96 96 SE 8 13 30.02 1017 9 14 0.00 0.00
9:03 am 09:03 Partly Cloudy 77 25 76 24.4 96 96 SE 7 11 30.03 1017 9 14 0.00 0.00
9:53 am 09:53 Partly Cloudy 82 27.8 76 24.4 82 82 SE 9 15 30.03 1017 10 16 0.00 0.00
10:53 am 10:53 Partly Cloudy 84 28.9 77 25 80 80 SSE 10 17 30.04 1017 10 16 0.00 0.00
11:53 am 11:53 Partly Cloudy 87 30.6 76 24.4 70 70 SE 12 19 30.03 1017 10 16 0.00 0.00
12:53 pm 12:53 Mostly Sunny 88 31.1 75 23.9 66 66 SSE 10 17 30.00 1016 10 16 0.00 0.00
1:53 pm 13:53 Mostly Cloudy 80 26.7 73 22.8 79 79 S 20 31 30.01 1016 10 16 0.00 0.00
2:00 pm 14:00 Mostly Cloudy with Thunderstorms 77 25 73 22.8 88 88 SSE 12 19 30.00 1016 4 6 0.02 0.51
2:26 pm 14:26 Cloudy with Nearby Thunderstorms 78 25.6 74 23.3 87 87 SE 5 7 30.00 1016 9 14 0.02 0.51
2:36 pm 14:36 Cloudy with Light Rain 79 26.1 74 23.3 85 85 SE 6 9 30.00 1016 10 16 0.02 0.51
2:53 pm 14:53 Mostly Cloudy with Light Rain 81 27.2 74 23.3 79 79 ESE 5 7 29.98 1015 10 16 0.02 0.51
3:53 pm 15:53 Mostly Sunny 83 28.3 75 23.9 77 77 SSW 6 9 29.98 1015 10 16 0.00 0.03
4:53 pm 16:53 Cloudy 83 28.3 77 25 82 82 NW 5 7 29.98 1015 10 16 0.00 0.00
5:02 pm 17:02 Mostly Cloudy with Thunderstorms 83 28.3 77 25 82 82 S 10 17 30.00 1016 3 5 0.04 1.02
5:04 pm 17:04 Mostly Cloudy with Strong Thunderstorms 81 27.2 77 25 88 88 S 16 26 30.00 1016 2 3 0.11 2.79
5:11 pm 17:11 Cloudy with Strong Thunderstorms 75 23.9 73 22.8 94 94 SW 22 35 30.00 1016 1 1 0.42 10.67
5:16 pm 17:16 Cloudy with Strong Thunderstorms 74 23.3 73 22.8 97 97 SW 12 19 30.00 1016 0 0 0.70 17.78
5:32 pm 17:32 Mostly Cloudy with Strong Thunderstorms 74 23.3 73 22.8 97 97 S 6 9 30.03 1017 0 0 1.35 34.29
5:43 pm 17:43 Cloudy with Strong Thunderstorms 74 23.3 73 22.8 97 97 E 8 13 30.00 1016 1 1 1.53 38.86
5:48 pm 17:48 Cloudy with Strong Thunderstorms 73 23 73 23 100 100 NE 6 9 30.00 1016 2 2 1.56 39.62
5:53 pm 17:53 Cloudy with Thunderstorms 74 23.3 73 22.8 97 97 E 6 9 30.01 1016 3 4 1.57 39.88
6:00 pm 18:00 Mostly Cloudy with Thunderstorms 74 23.3 74 23.3 100 100 Calm 30.00 1016 6 10 0.00 0.03
6:13 pm 18:13 Mostly Cloudy with Nearby Thunderstorms 74 23.3 74 23.3 100 100 W 6 9 30.00 1016 8 13 0.01 0.25
6:26 pm 18:26 Partly Cloudy with Light Rain 74 23.3 74 23.3 100 100 NNE 5 7 30.00 1016 10 16 0.01 0.25
6:44 pm 18:44 Mostly Cloudy 74 23.3 74 23.3 100 100 NE 3 6 30.00 1016 10 16 0.01 0.25
6:53 pm 18:53 Mostly Cloudy 74 23.3 74 23.3 100 100 NNE 3 6 30.01 1016 10 16 0.01 0.25
7:20 pm 19:20 Cloudy with Light Rain 74 23.3 74 23.3 100 100 ENE 3 6 30.00 1016 10 16 0.00 0.03
7:34 pm 19:34 Cloudy with Nearby Thunderstorms 74 23.3 74 23.3 100 100 SSE 8 13 30.03 1017 6 10 0.02 0.51
7:43 pm 19:43 Cloudy with Heavy Rain 73 22.8 73 22.8 100 100 ESE 7 11 30.03 1017 2 3 0.08 2.03
7:47 pm 19:47 Cloudy with Rain 73 23 73 23 100 100 ENE 5 7 30.03 1017 3 5 0.08 2.03
7:53 pm 19:53 Mostly Cloudy with Light Rain 74 23.3 73 22.8 97 97 ENE 7 11 30.03 1017 8 13 0.08 2.03
8:53 pm 20:53 Mostly Cloudy with Light Rain 74 23.3 74 23.3 100 100 NNE 3 6 30.04 1017 10 16 0.03 0.76
9:53 pm 21:53 Clear 74 23.3 74 23.3 100 100 E 3 6 30.06 1018 10 16 0.00 0.03
10:05 pm 22:05 Mostly Clear 74 23.3 74 23.3 100 100 E 5 7 30.06 1018 10 16 0.00 0.00
10:53 pm 22:53 Clear 74 23.3 74 23.3 100 100 ENE 5 7 30.07 1018 10 16 0.00 0.00
11:53 pm 23:53 Clear 74 23.3 74 23.3 100 100 Calm 30.07 1018 10 16 0.00 0.00

Powered by AerisWeather